Weather in Soledar

Ukraine / Donetsk Region     48°41′44″N   38°03′57″E
temp.,
°C
wind,
m/s
gust,
m/s
humid.,
%
clouds,
%
prec.,
mm/h
press.,
hPa
HPBL,
m
6 may, thu
thu600:00+9ssw336563 0.0 101732
03:00+8sse3361100 0.0 101642
06:00+9sse3964100 0.0 1016184
09:00+14sse6954100 0.0 1015824
12:00+18s674398 0.0 10141814
15:00+19s5639100 0.0 10132185
18:00+18s3552100 0.0 1012212
21:00+13s3461100 0.0 101352
7 may, fri
fri700:00+13sw3659100 0.0 1013147
03:00+12n257598 0.1 1014123
06:00+11nnw2480100 0.0 1015149
09:00+14nnw227363 0.0 1016647
12:00+17w2359100 0.1 10161418
15:00+18wsw235675 0.2 1016841
18:00+18s2356100 0.0 1015623
21:00+15se4969100 0.0 1015239
8 may, sat
sat800:00+13s3971100 0.0 1015194
03:00+12s3871100 0.0 1014174
06:00+12s61370100 0.0 1013442
09:00+14s61266100 0.0 1013375
12:00+18ssw71153100 0.0 1012936
15:00+19ssw6952100 0.0 10101433
18:00+19ssw595598 0.0 1009724
21:00+10nnw71187100 0.1 1012500
9 may, sun
sun900:00+8nnw81184100 0.0 1013825
03:00+5n71392100 2.6 1014838
06:00+6nnw3893100 7.4 1015552
09:00+8nw71077100 7.8 1016961
12:00+12nw8115281 0.1 10172099
15:00+13nw7104790 0.3 10192192
18:00+11nnw7106682 0.3 10201347
21:00+7nnw511785 0.4 1023415
10 may, mon
mon1000:00+5wnw410835 0.0 1024200
03:00+4wnw410874 0.0 1024218
06:00+5nw412812 0.0 1024318
09:00+11nnw711534 0.0 10241398
12:00+14nnw91242100 0.0 10222722
15:00+13nnw81351100 0.1 10202126
18:00+8nnw71485100 1.1 10201321
21:00+6nnw71390100 3.1 1018986